Regional Weather Roundup
Issued by NWS

Home | Current Version | Previous Version | Graphics & Text | Print | Product List | Glossary On
Versions: 1 2 3 4 5 6 7 8 9 10 11 12 13 14 15 16 17 18 19 20 21 22 23 24 25 26 27 28 29 30 31 32 33 34 35 36 37 38 39 40 41 42 43 44 45 46 47 48 49 50
000
ASUS45 KCYS 011510
RWRWY

WYOMING REGIONAL WEATHER ROUNDUP
NATIONAL WEATHER SERVICE CHEYENNE WY
900 AM MDT MON SEP 01 2014

NOTE:  "FAIR" INDICATES FEW OR NO CLOUDS BELOW 12,000 FEET
WITH NO SIGNIFICANT WEATHER AND/OR OBSTRUCTIONS TO VISIBILITY.

WYZ001-011600-
YELLOWSTONE NATIONAL PARK

CITY           SKY/WX    TMP DP  RH WIND       PRES   REMARKS
LK YELLOWSTONE NOT AVBL
W YELLOWSTONE  NOT AVBL

$$
WYZ002>013-054>058-071-098>099-011600-
NORTHERN WYOMING

CITY           SKY/WX    TMP DP  RH WIND       PRES   REMARKS
JACKSON        MOSUNNY   43  39  87 CALM      30.13S
CODY             N/A    N/A N/A N/A MISG        N/A
GREYBULL       PTSUNNY   58  49  72 NE3       30.00S
WORLAND        PTSUNNY   57  50  77 CALM      30.01R
SHERIDAN       CLOUDY    54  45  71 NW20G28   30.02R
BUFFALO        PTSUNNY   56  42  59 N18G26    30.03R
GILLETTE       CLOUDY    57  45  64 NW6       30.00R
HULETT         CLOUDY    55  46  71 MISG      30.00
NEWCASTLE      FAIR      54  48  82 CALM      30.01

$$
WYZ014>020-022>026-101>103-011600-
CENTRAL WYOMING

CITY           SKY/WX    TMP DP  RH WIND       PRES   REMARKS
BIG PINEY      SUNNY     46  38  73 CALM      30.16R
PINEDALE       SUNNY     43  36  75 W5        30.16S
DUBOIS         FAIR      46  32  57 N10       30.10R
LANDER         MOSUNNY   53  41  63 CALM      30.04R
RIVERTON       SUNNY     55  36  48 W5        30.05R
CASPER         MOSUNNY   58  43  57 SW9       30.03R
DOUGLAS        MOSUNNY   56  47  71 CALM      30.03S

$$
WYZ021-027>030-104>119-011600-
SOUTHERN WYOMING

CITY           SKY/WX    TMP DP  RH WIND       PRES   REMARKS
EVANSTON       MOSUNNY   51  34  52 SW8       30.18R
KEMMERER       SUNNY     50  32  50 W13       30.17S
FORT BRIDGER   FAIR      56  36  47 W13       30.18S
ROCK SPRINGS   MOSUNNY   51  34  52 SW8       30.14S
DIXON          FAIR      50  42  71 SE3       30.18S
RAWLINS        MOSUNNY   55  35  47 SW22G29   30.11R
SARATOGA       FAIR      52  37  58 SE6       30.15S
LARAMIE        MOSUNNY   55  32  41 SW13      30.13R
CHEYENNE       MOSUNNY   57  46  66 SW9       30.10R
TORRINGTON     MOSUNNY   55  51  86 SW3       30.00S
PINE BLUFFS    FAIR      57  48  72 SW7       30.07S

$$



USA.gov is the U.S. government's official web portal to all federal, state and local government web resources and services.